sat.trackr.live / text

‹ back to catalog

STARLINK-36709

NORAD 67969 · 2026-038J

PAYLOAD ACTIVE UNKNOWN

§ Identity

Operator
Country
US
Launch date
2026-02-25
Launch site
AFWTR
Launch vehicle
Mass (kg)
RCS (m²)

Purposes: comms

External: N2YO · Heavens-Above · Gunter

§ Orbital elements

Epoch: 2026-09-19T07:56:58.684992Z

Period
93.91 min
Inclination
97.2844°
Eccentricity
0.0002105
Mean motion
15.33449424 rev/d
Perigee alt
464.1 km
Apogee alt
467.0 km
Semi-major
6,843.7 km
B*
3.8096e-4
RAAN
270.6778°
Arg perigee
102.6652°
Mean anomaly
257.4827°
Rev number
3,291

§ Raw data

STARLINK-367091 67969U 26038J   26262.33123478  .00012246  00000+0  38096-3 0  99982 67969  97.2844 270.6778 0002105 102.6652 257.4827 15.33449424 32919

JSON: /api/v1/satellites/67969 · /tle

For live sub-satellite position, see the globe view (requires WebGL).

§ Visibility from observer

Set your observer location to see the next 7 days of passes ≥ 10°. The values pass through the URL so the page stays shareable.

No JS? Fill the form by hand. The geolocation button needs JavaScript.